User: anonymous   Login
Location: Albany
(35.0000°S, 118.0000°E)
Time: 09:15:17
(UTC-04:00)
Language:

Cosmos 1758 Rocket - Orbit

View from above orbital plane
View from above orbital plane
View from above satellite
View from above satellite

Ground track
Ground track

The orbit data is extracted from the following two-line orbital elements,

1 16792U 86046B   14303.79762502  .00000546  00000-0  64465-4 0  6168
2 16792 082.4859 025.8684 0024053 211.2150 289.3627 14.82678447532549
Epoch (UTC): 30 October 2014 19:08:34
Eccentricity: 0.0024053
inclination: 82.4859°
perigee height: 604 km
apogee height: 638 km
right ascension of ascending node: 25.8684°
argument of perigee: 211.2150°
revolutions per day: 14.82678447
mean anomaly at epoch: 289.3627°
orbit number at epoch: 53254

The dashed part of the orbit path shows where the satellite is in the earth's shadow,  

DLR